Regional Weather Roundup
Issued by NWS

Home | Current Version | Previous Version | Graphics & Text | Print | Product List | Glossary On
Versions: 1 2 3 4 5 6 7 8 9 10 11 12 13 14 15 16 17 18 19 20 21 22 23 24 25 26 27 28 29 30 31 32 33 34 35 36 37 38 39 40 41 42 43 44 45 46 47 48 49 50
000
ASUS43 KOAX 231002
RWRNE

WEATHER ROUNDUP FOR NEBRASKA
NATIONAL WEATHER SERVICE OMAHA NE
400 AM CST THU FEB 23 2017

NOTES: SATELLITE DATA IS BEING USED TO AUGMENT CLOUD COVER ABOVE
       12000 FEET.
       "FAIR" INDICATES FEW OR NO CLOUDS BELOW 12,000 FEET WITH NO
       SIGNIFICANT WEATHER AND/OR OBSTRUCTIONS TO VISIBILITY.

  * THESE STATIONS DO NOT REPORT WEATHER SUCH AS RAIN...SNOW OR FOG.

NEZ001>004-019>022-054>056-231100-
NEBRASKA PANHANDLE

CITY           SKY/WX    TMP DP  RH WIND       PRES   REMARKS
SCOTTSBLUFF    CLOUDY    32  28  85 NE17      29.74F WCI  21
ALLIANCE       LGT SNOW  30  27  88 NE16      29.74F FOG     WCI  19
CHADRON        LGT SNOW  30  28  92 NE16      29.81F FOG     WCI  19
KIMBALL        CLOUDY    32  32  99 NE15      29.69F WCI  22
SIDNEY         CLOUDY    33  29  85 NE21G28   29.69F WCI  21
$$

NEZ057>060-069>072-079>082-231100-
SOUTHWEST NEBRASKA

CITY           SKY/WX    TMP DP  RH WIND       PRES   REMARKS
NORTH PLATTE   CLOUDY    36  32  85 NE15G24   29.76S WCI  27
IMPERIAL       CLOUDY    35  30  82 NE20      29.71F WCI  24
LEXINGTON      CLOUDY    38  36  90 NE17      29.76S WCI  29
MCCOOK         CLOUDY    39  35  86 NE18      29.70F WCI  30
OGALLALA       CLOUDY    35  32  88 NE15      29.74F WCI  26
$$

NEZ005>010-023>029-035>040-094-231100-
NORTH CENTRAL NEBRASKA

CITY           SKY/WX    TMP DP  RH WIND       PRES   REMARKS
VALENTINE      LGT SNOW  29  26  89 NE20G29   29.84F FOG     WCI  16
AINSWORTH      CLOUDY    29  29 100 N15       29.83S FOG     WCI  18
BROKEN BOW     CLOUDY    36  35  96 NE17G26   29.78R FOG     WCI  26
O`NEILL        CLOUDY    31  31  99 N15       29.85R WCI  20
ORD            CLOUDY    36  30  79 N15       29.79F WCI  27
THEDFORD       CLOUDY    33  32  97 NE15G21   29.80F WCI  23
$$

NEZ041-046>049-061>064-073>077-083>087-231100-
SOUTH CENTRAL NEBRASKA

CITY           SKY/WX    TMP DP  RH WIND       PRES   REMARKS
GRAND ISLAND   CLOUDY    38  35  89 NE21G26   29.79F WCI  28
AURORA         CLOUDY    38  37  92 NE20      29.77F WCI  29
HASTINGS       CLOUDY    40  35  83 NE17G28   29.77S WCI  31
HEBRON         CLOUDY    43  37  78 NE10      29.74S
HOLDREGE       CLOUDY    39  36  89 NE25G33   29.74F WCI  27
KEARNEY *      CLOUDY    39  34  81 NE21G26   29.77F WCI  29
YORK           CLOUDY    37  37 100 NE17G24   29.78F WCI  28
$$

NEZ011>018-030>034-042>045-231100-
NORTHEAST NEBRASKA

CITY           SKY/WX    TMP DP  RH WIND       PRES   REMARKS
NORFOLK        CLOUDY    34  31  88 N15       29.83S WCI  24
ALBION         CLOUDY    35  32  88 N12       29.82S WCI  27
BLAIR          CLOUDY    39  36  89 N15       29.77F WCI  31
FREMONT        CLOUDY    39  37  90 N7        29.81S WCI  34
TEKAMAH        CLOUDY    38  34  85 N14       29.82F WCI  30
WAYNE          CLOUDY    34  33  94 NE18      29.84S WCI  23
$$

NEZ050>053-065>068-078-088>093-231100-
SOUTHEAST NEBRASKA

CITY           SKY/WX    TMP DP  RH WIND       PRES   REMARKS
LINCOLN        PTCLDY    41  37  86 N12       29.78F
OMAHA EPPLEY   CLOUDY    41  35  79 N21       29.79S
BEATRICE       MOCLDY    44  38  80 NE8       29.75R
FALLS CITY     MOCLDY    45  38  76 NE6       29.72S
NEBRASKA CITY  CLOUDY    42  36  77 NE15      29.75R
PLATTSMOUTH    CLOUDY    42  35  77 N7        29.77R
$$

NEZ044-045-051>053-067-231100-
OMAHA AREA

CITY           SKY/WX    TMP DP  RH WIND       PRES   REMARKS
OMAHA EPPLEY   CLOUDY    41  35  79 N21       29.79S
BLAIR          CLOUDY    39  36  89 N15       29.77F WCI  31
FREMONT        CLOUDY    39  37  90 N7        29.81S WCI  34
MILLARD        CLOUDY    44  38  82 N7        29.79R
OFFUTT AFB     CLOUDY    42  35  78 N13       29.78R
PLATTSMOUTH    CLOUDY    42  35  77 N7        29.77R
WAHOO          CLOUDY    39  37  90 N15       29.80R WCI  31
$$




USA.gov is the U.S. government's official web portal to all federal, state and local government web resources and services.